Content
SEND FEEDBACK

Daily
Averages
Monthly
Summary
United States of America

ANN ARBOR, MICHIGAN


Home > North America > United States > Michigan
Elevation: 231 meters     Latitude: 42 17N     Longitude: 083 43W

WEATHER
 
SELECT A DAY
Number of Records: 203,168;   Date Range: 1/1/95 - 7/22/14
 
SHARE

PRINT THIS DATA

[ ← Previous Day ]
WEATHER ALMANAC - 25 SEPTEMBER, 2013
[ Next Day → ]
[ °F ]   °C
Weather ElementAverageHighLow
Temperature12.3 °C21.1 °C (3:53 pm)6.1 °C (3:53 am)
Dewpoint8.6 °C12.2 °C (11:53 am)5.6 °C (3:53 am)
Humidity80.6 %100 % (5:53 am)52 % (5:53 pm)
Barometer1015.6 hPa1016.6 hPa (9:53 am)1014.6 hPa (3:53 pm)
Wind Speed6.6 km/h13 km/h (12:53 pm)
Weather ElementAverage
Visibility13 km
Wind DirectionNE (44.4 °)

Weather ElementTotal
Precipitation---
Heating Degree Days4.7 (Base 18.3)
Growing Degree Days3.6 (Base 10)
Averaged from 27 records on 25 September, 2013
WEATHER CONDITIONS BREAKOUT
WIND DIRECTION BREAKOUT
WEATHER BY HOUR - 25 SEPTEMBER, 2013
[ °F ]   °C
Local TimeTemperatureDewpointHumidityBarometerVisibilityWind DirectionWind SpeedGust SpeedPrecipitationEventsConditions
12:53 AM8.9 °C8.3 °C96 %1016.3 hPa9.7 kmENE (60°)9.3 km/hClear
1:53 AM9.4 °C8.3 °C93 %1015.9 hPa9.7 kmNE (40°)7.4 km/hClear
2:53 AM8.3 °C7.8 °C97 %1015.6 hPa9.7 kmNE (50°)5.6 km/hClear
3:53 AM6.1 °C5.6 °C97 %1015.6 hPa11.3 kmNE (50°)5.6 km/hClear
4:53 AM6.7 °C6.1 °C96 %1015.2 hPa9.7 kmNE (50°)5.6 km/hClear
5:53 AM6.1 °C6.1 °C100 %1015.6 hPa12.9 kmNE (50°)5.6 km/hClear
6:17 AM7 °C6 °C93 %1015.6 hPa2.9 kmCalmClear
6:24 AM8 °C7 °C93 %1015.6 hPa1.3 kmCalmClear
6:51 AM7 °C6 °C93 %1015.6 hPa2.9 kmCalmClear
6:53 AM7.2 °C5.6 °C90 %1015.9 hPa8 kmNE (50°)5.6 km/hClear
7:53 AM8.9 °C8.3 °C96 %1015.6 hPa16.1 kmNE (50°)7.4 km/hClear
8:53 AM11.1 °C9.4 °C89 %1016.3 hPa16.1 kmCalmClear
9:53 AM13.9 °C10.6 °C81 %1016.6 hPa16.1 kmNE (50°)5.6 km/hClear
10:53 AM17.2 °C11.7 °C70 %1016.6 hPa16.1 kmENE (70°)11.1 km/hClear
11:53 AM18.3 °C12.2 °C68 %1016.3 hPa16.1 kmVariable11.1 km/hClear
12:53 PM17.8 °C11.7 °C67 %1015.9 hPa16.1 kmEast (80°)13 km/hPartly Cloudy
1:53 PM18.9 °C11.7 °C63 %1015.6 hPa16.1 kmSE (140°)11.1 km/hClear
2:53 PM20.6 °C11.1 °C54 %1014.9 hPa16.1 kmEast (80°)13 km/hClear
3:53 PM21.1 °C11.1 °C53 %1014.6 hPa16.1 kmSSE (150°)13 km/hClear
4:53 PM20.6 °C10.6 °C53 %1014.6 hPa16.1 kmEast (90°)13 km/hClear
5:53 PM19.4 °C9.4 °C52 %1014.9 hPa16.1 kmNE (40°)11.1 km/hClear
6:53 PM18.3 °C9.4 °C56 %1015.2 hPa16.1 kmNE (40°)9.3 km/hClear
7:53 PM16.1 °C8.3 °C60 %1015.2 hPa16.1 kmNE (40°)7.4 km/hClear
8:53 PM10 °C8.3 °C89 %1015.6 hPa16.1 kmCalmClear
9:53 PM9.4 °C7.8 °C90 %1015.6 hPa16.1 kmCalmClear
10:53 PM8.3 °C7.2 °C93 %1015.9 hPa16.1 kmCalmClear
11:53 PM7.8 °C6.7 °C93 %1016.3 hPa16.1 kmNNE (20°)7.4 km/hClear
Hourly data recorded from KARB, located 0 kilometers away from Ann Arbor, Michigan







STORIES FROM OUR PARTNERS